Spokane, WA
on Wednesday, January 23, 2013

Wednesday
Previous Day Next Day
Daily Summary
 ActualAverageRecord
Temperature
Mean Temperature °F 31°F  
Max Temperature 34°F 36°F 53°F (1919)
Min Temperature 20°F 26°F -19°F (1969)
Degree Days
Heating Degree Days 38 34  
Month to date heating degree days 979 827  
Since 1 July heating degree days 3404 3661  
Cooling Degree Days 0 0  
Month to date cooling degree days 0 0  
Year to date cooling degree days 0 0  
Moisture
Dew Point 24°F   
Average Humidity 88    
Maximum Humidity 92    
Minimum Humidity 84    
Precipitation
Precipitation 0.12 in 0.05 in 1.36 in (1882)
Month to date precipitation 1.17 1.39  
Year to date precipitation 1.17 1.39  
Snow
Snow 0.50 in 0.30 in 7.40 in (1965)
Month to date snowfall 12.3 9.2  
Since 1 July snowfall 36.3 31.3  
Snow Depth 2.00 in   
Wind
Wind Speed 6 mph   
Max Wind Speed 25 mph   
Max Gust Speed 29 mph   
Visibility 5 miles   
Events Rain , Snow   

Key: T is trace of precipitation, MM is missing value
Source: NWS Daily Summary
Time(PST)TemperatureDew PointHumidity Pressure Visibility Wind DirectionWind SpeedGust SpeedPrecipitationEvents Conditions
12:53 AM 21.0°F 18.0°F 88% 30.19 in 5.0 miles NE 3.5 mph - N/A   Overcast
1:18 AM 21.2°F 17.6°F 86% 30.08 in 3.0 miles NE 3.5 mph - N/A   Overcast
1:53 AM 21.0°F 18.0°F 88% 30.19 in 3.0 miles NNE 4.6 mph - N/A   Overcast
2:53 AM 21.0°F 18.0°F 88% 30.17 in 5.0 miles NE 5.8 mph - N/A   Overcast
3:53 AM 21.0°F 19.0°F 92% 30.18 in 5.0 miles Calm Calm - N/A   Overcast
4:53 AM 21.9°F 19.0°F 89% 30.14 in 6.0 miles NNE 3.5 mph - N/A   Overcast
5:53 AM 21.9°F 19.0°F 89% 30.12 in 7.0 miles NNE 5.8 mph - N/A   Overcast
6:53 AM 19.9°F 17.1°F 89% 30.12 in 9.0 miles NNE 5.8 mph - N/A   Overcast
7:53 AM 21.0°F 19.0°F 92% 30.11 in 9.0 miles NNE 5.8 mph - N/A   Overcast
8:53 AM 21.0°F 18.0°F 88% 30.10 in 10.0 miles NE 4.6 mph - N/A   Overcast
9:53 AM 24.1°F 21.0°F 88% 30.10 in 10.0 miles NNE 3.5 mph - N/A   Overcast
10:53 AM 27.0°F 23.0°F 85% 30.08 in 10.0 miles NE 6.9 mph - N/A   Overcast
11:53 AM 28.0°F 24.1°F 85% 30.05 in 10.0 miles ENE 5.8 mph - N/A   Overcast
12:53 PM 28.9°F 25.0°F 85% 30.03 in 10.0 miles NNE 5.8 mph - N/A   Overcast
1:53 PM 28.9°F 25.0°F 85% 30.01 in 10.0 miles Calm Calm - N/A   Overcast
2:53 PM 28.9°F 25.0°F 85% 30.02 in 10.0 miles Calm Calm - N/A   Overcast
2:58 PM 28.4°F 24.8°F 86% 29.93 in 2.0 miles Calm Calm - 0.00 in Snow Light Snow
3:34 PM 28.4°F 26.6°F 93% 29.92 in 2.0 miles NE 6.9 mph - 0.03 in Rain Light Freezing Rain
3:53 PM 28.9°F 27.0°F 92% 30.03 in 2.0 miles Calm Calm - 0.04 in Rain Light Freezing Rain
4:03 PM 28.4°F 26.6°F 93% 29.95 in 1.0 miles Calm Calm - 0.00 in Snow Light Snow
4:18 PM 28.4°F 26.6°F 93% 29.94 in 0.5 miles ENE 4.6 mph - 0.01 in Snow Light Snow
4:47 PM 28.4°F 26.6°F 93% 29.92 in 0.5 miles NE 9.2 mph - 0.04 in Rain Light Freezing Rain
4:53 PM 28.9°F 27.0°F 92% 30.00 in 0.5 miles NE 9.2 mph - 0.05 in Rain Light Freezing Rain
5:08 PM 28.4°F 26.6°F 93% 29.92 in 0.5 miles ENE 4.6 mph - 0.00 in Rain Light Freezing Rain
5:42 PM 30.2°F 28.4°F 93% 29.91 in 0.5 miles ENE 4.6 mph - 0.01 in Rain Light Freezing Rain
5:53 PM 30.0°F 28.0°F 92% 29.99 in 0.5 miles NE 3.5 mph - 0.01 in Rain Light Freezing Rain
6:31 PM 30.2°F 28.4°F 93% 29.88 in 0.5 miles ENE 6.9 mph - 0.02 in Rain , Snow Light Freezing Rain
6:41 PM 30.2°F 28.4°F 93% 29.88 in 2.0 miles East 6.9 mph - 0.02 in   Overcast
6:53 PM 30.9°F 30.0°F 96% 29.97 in 2.0 miles East 4.6 mph - 0.02 in   Overcast
7:38 PM 30.2°F 30.2°F 100% 29.89 in 2.0 miles NW 3.5 mph - 0.00 in Rain Light Freezing Rain
7:53 PM 30.9°F 30.9°F 100% 29.98 in 2.0 miles Calm Calm - 0.00 in Rain Light Freezing Rain
8:09 PM 30.2°F 30.2°F 100% 29.89 in 4.0 miles SE 5.8 mph - 0.00 in Rain Light Freezing Rain
8:24 PM 33.8°F 32.0°F 93% 29.90 in 5.0 miles SSW 5.8 mph - 0.00 in Rain Light Rain
8:53 PM 33.1°F 30.0°F 89% 29.99 in 5.0 miles SSW 16.1 mph 23.0 mph 0.00 in Snow Light Snow
9:53 PM 27.0°F 24.1°F 89% 30.03 in 4.0 miles SSW 13.8 mph 24.2 mph 0.00 in   Overcast
10:40 PM 24.8°F 21.2°F 86% 29.99 in 2.0 miles SSW 17.3 mph - 0.00 in Snow Light Snow
10:53 PM 24.1°F 21.0°F 88% 30.08 in 4.0 miles SSW 15.0 mph - 0.00 in   Overcast
11:31 PM 23.0°F 21.2°F 93% 30.02 in 1.0 miles SSW 16.1 mph - N/A   Overcast
11:53 PM 23.0°F 21.0°F 92% 30.12 in 4.0 miles SSW 9.2 mph - N/A   Overcast
Moon Phase
Jan. 23 Jan. 26 Feb. 03 Feb. 10 Feb. 17
Sunrise:07:26 AM (PST) Moon Rise:01:48 PM (PST)
Sunset:04:37 PM (PST) Moon Set:04:45 AM (PST)

Copyright © 2014 The Weather Underground, Inc.